Location: Huesca
(42.1318°N, 0.4078°W)
Time: 11:25:48
(UTC+01:00)

O/OREOS (USA 219) - Pass Details

Date: 14 November 2024
Orbit: 590 x 609 km, 72.0° (Epoch: 06 December)

Event Time Altitude Azimuth Distance (km) Brightness Sun altitude
Rises 18:12:40 0° 173° (S) 2,820 ? -6.3°
Reaches altitude 10° 18:15:09 10° 160° (SSE) 1,920 ? -6.8°
Maximum altitude 18:18:44 26° 104° (ESE) 1,172 ? -7.4°
Drops below altitude 10° 18:22:19 10° 47° (NE) 1,926 ? -8.0°
Enters shadow 18:23:05 - 42° (NE) 2,193 ? -8.2°
